Simultaneous Nadir Overpasses (SNOs) Predictions

Prediction of SNOs between AQUA and METOP-A Satellite Orbit:

Table of predicted SNOs for the next 14.0 days since TLE Epoch: 9/18/2020
Index Date (AQUA) Time (AQUA) Lat,Lon (AQUA) SZA (AQUA ) Date (METOP-A) Time (METOP-A) Lat,Lon (METOP-A) SZA (METOP-A ) Distance(km) Time Diff (sec)
1 09/19/2020 16:39:51 76.58, -82.94 75.66 09/19/2020 16:39:10 76.60, -82.94 75.69 2.64 41
2 09/19/2020 17:29:18 -76.62, 84.55 104.28 09/19/2020 17:29:51 -76.64, 84.52 104.27 1.91 33
3 09/22/2020 12:14:06 76.59, -16.54 76.76 09/22/2020 12:13:34 76.58, -16.67 76.76 3.50 32
4 09/22/2020 13:03:33 -76.63, 150.97 103.19 09/22/2020 13:04:14 -76.66, 150.96 103.16 4.17 41
5 09/25/2020 07:48:21 76.61, 49.83 77.86 09/25/2020 07:47:57 76.60, 49.75 77.87 1.99 24
6 09/25/2020 08:37:48 -76.64,-142.64 102.10 09/25/2020 08:38:38 -76.64,-142.77 102.09 3.48 50
7 09/28/2020 02:32:57 -76.08, -49.66 101.66 09/28/2020 02:31:53 -76.00, -53.33 101.56 98.92 64
8 09/28/2020 03:22:35 76.63, 116.18 78.97 09/28/2020 03:22:19 76.63, 116.18 78.97 0.69 16
9 09/28/2020 04:12:02 -76.66, -76.26 100.99 09/28/2020 04:13:00 -76.67, -76.34 100.98 2.40 58
10 09/30/2020 22:07:19 -76.44, 15.61 100.17 09/30/2020 22:06:08 -76.39, 14.34 100.16 33.82 71
11 09/30/2020 22:56:50 76.66,-177.48 80.09 09/30/2020 22:56:42 76.65,-177.41 80.07 2.59 8
